This is the latest recevied weather packets stored in our database for station/object OZ1IEP-5. If no packets are shown the sender has not sent any weather packets the latest 10 day(s).
| Time | Temp. | Humidity | Pressure | Rain* | Wind** | Luminosity | Snow |
|---|---|---|---|---|---|---|---|
| 1787748005 | 23.89° C | 54% | 1023 hPa | 0 mm | - | 694 W/m² | - |
| 1787747408 | 23.33° C | 53% | 1023 hPa | 0 mm | - | 687 W/m² | - |
| 1787746805 | 22.78° C | 55% | 1023.1 hPa | 0 mm | - | 803 W/m² | - |
| 1787746205 | 22.78° C | 57% | 1023.1 hPa | 0 mm | - | 879 W/m² | - |
| 1787745608 | 22.22° C | 60% | 1023.1 hPa | 0 mm | - | 851 W/m² | - |
| 1787745006 | 22.22° C | 61% | 1023.1 hPa | 0 mm | - | 176 W/m² | - |
| 1787744405 | 22.22° C | 58% | 1023.2 hPa | 0 mm | - | 216 W/m² | - |
| 1787743808 | 22.78° C | 57% | 1023.4 hPa | 0 mm | - | 209 W/m² | - |
| 1787743206 | 22.78° C | 58% | 1023.4 hPa | 0 mm | - | 221 W/m² | - |
| 1787742606 | 23.33° C | 58% | 1023.4 hPa | 0 mm | - | 171 W/m² | - |
| 1787742008 | 23.33° C | 54% | 1023.4 hPa | 0 mm | - | 779 W/m² | - |
| 1787741405 | 23.33° C | 59% | 1023.3 hPa | 0 mm | - | 782 W/m² | - |
| 1787740806 | 23.33° C | 58% | 1023.3 hPa | 0 mm | - | 104 W/m² | - |
| 1787740208 | 23.33° C | 58% | 1023.4 hPa | 0 mm | - | 701 W/m² | - |
| 1787739606 | 22.78° C | 61% | 1023.4 hPa | 0 mm | - | 691 W/m² | - |
| 1787739005 | 22.22° C | 63% | 1023.4 hPa | 0 mm | - | 677 W/m² | - |
| 1787738408 | 22.22° C | 64% | 1023.5 hPa | 0 mm | - | 671 W/m² | - |
| 1787737806 | 21.11° C | 67% | 1023.5 hPa | 0 mm | - | 673 W/m² | - |
| 1787737206 | 20.56° C | 73% | 1023.5 hPa | 0 mm | - | 673 W/m² | - |
| 1787736608 | 20.56° C | 78% | 1023.5 hPa | 0 mm | - | 515 W/m² | - |
| 1787736005 | 20° C | 83% | 1023.5 hPa | 0 mm | - | 675 W/m² | - |
| 1787735405 | 19.44° C | 88% | 1023.5 hPa | 0 mm | - | 543 W/m² | - |
| 1787734808 | 18.33° C | 89% | 1023.6 hPa | 0 mm | - | 698 W/m² | - |
| 1787734206 | 17.22° C | 90% | 1023.6 hPa | 0 mm | - | 638 W/m² | - |
| 1787733605 | 16.67° C | 91% | 1023.6 hPa | 0 mm | - | 243 W/m² | - |
* Rain latest hour (hover to see other rain measurements)
** Current wind speed in m/s (hover to see current wind gust speed)